This is the latest recevied weather packets stored in our database for station/object EA7AIS-10. If no packets are shown the sender has not sent any weather packets the latest 10 day(s).
| Time | Temp. | Humidity | Pressure | Rain* | Wind** | Luminosity | Snow |
|---|---|---|---|---|---|---|---|
| 1777867291 | 16.11° C | 83% | 1011.5 hPa | - | - | - | - |
| 1777866390 | 16.11° C | 83% | 1011.6 hPa | - | - | - | - |
| 1777865491 | 16.11° C | 83% | 1011.8 hPa | - | - | - | - |
| 1777864590 | 16.11° C | 81% | 1011.7 hPa | - | - | - | - |
| 1777863690 | 16.11° C | 82% | 1011.6 hPa | - | - | - | - |
| 1777862790 | 16.11° C | 81% | 1011.6 hPa | - | - | - | - |
| 1777861891 | 16.11° C | 81% | 1011.6 hPa | - | - | - | - |
| 1777860990 | 16.11° C | 80% | 1011.7 hPa | - | - | - | - |
| 1777860090 | 16.11° C | 82% | 1011.6 hPa | - | - | - | - |
| 1777859190 | 16.11° C | 81% | 1011.6 hPa | - | - | - | - |
| 1777858290 | 16.11° C | 81% | 1011.8 hPa | - | - | - | - |
| 1777856490 | 16.67° C | 78% | 1012 hPa | - | - | - | - |
| 1777855590 | 16.67° C | 79% | 1012.1 hPa | - | - | - | - |
| 1777854690 | 16.67° C | 77% | 1012.3 hPa | - | - | - | - |
| 1777853790 | 16.67° C | 77% | 1012.5 hPa | - | - | - | - |
| 1777852890 | 16.67° C | 78% | 1012.5 hPa | - | - | - | - |
| 1777851989 | 16.67° C | 78% | 1012.7 hPa | - | - | - | - |
| 1777851090 | 17.22° C | 78% | 1012.7 hPa | - | - | - | - |
| 1777850189 | 17.22° C | 77% | 1012.8 hPa | - | - | - | - |
| 1777849289 | 17.22° C | 79% | 1012.7 hPa | - | - | - | - |
| 1777848389 | 17.22° C | 79% | 1013 hPa | - | - | - | - |
| 1777847489 | 17.22° C | 76% | 1012.9 hPa | - | - | - | - |
| 1777846589 | 17.22° C | 77% | 1012.8 hPa | - | - | - | - |
| 1777845689 | 17.78° C | 76% | 1012.7 hPa | - | - | - | - |
| 1777844789 | 17.78° C | 78% | 1012.8 hPa | - | - | - | - |
* Rain since midnight (hover to see other rain measurements)
** Current wind speed in m/s (hover to see current wind gust speed)